Погода в Санаторном

Россия / Республика Крым     44°24′04″N   33°49′26″E
темп.,
°C
ветер,
м/с
пор.,
м/с
влажн.,
%
обл.,
%
осадки,
мм/ч
давл.,
гПа
погр.,
м
27 января, ср
ср2700:00+9вюв41287100 1.8 1006677
03:00+10юв51377100 2.1 1004461
06:00+10вюв51074100 0.0 1002330
09:00+10вюв51473100 0.0 1001517
12:00+10вюв41179100 0.6 1001523
15:00+10юв51281100 1.6 998778
18:00+10вюв51171100 0.8 996432
21:00+9юв71763100 0.8 995865
28 января, чт
чт2800:00+7ю3687100 0.2 996413
03:00+5ююз5996100 2.8 997561
06:00+3ююз81183100 0.8 999964
09:00+2юз9127498 0.9 10021388
12:00+2юз10146797 0.3 10041697
15:00+2юз11157099 0.8 10051696
18:00+2юз101572100 0.8 10061605
21:00+2юз101575100 1.8 10071474
29 января, пт
пт2900:000юз91494100 1.6 1008948
03:00+2зюз111570100 2.5 10081435
06:00+1зюз91381100 0.9 10091200
09:00+2зюз91373100 2.2 10091396
12:00+3зюз91375100 0.6 10101434
15:00+3зюз91272100 0.9 10091456
18:00+4юз91275100 0.1 10091137
21:00+4ююз91279100 0.3 10091065
30 января, сб
сб3000:00+4ююз91496100 1.6 1008986
03:00+4ююз91396100 3.7 1007834
06:00+5юз81291100 1.4 1005815
09:00+5ю61080100 1.6 1004741
12:00+6ююв71068100 0.0 1003852
15:00+7юв6106199 0.0 1000835
18:00+6юв6136293 0.0 999513
21:00+6вюв346694 0.0 99997
31 января, вс
вс3100:00+5ю227696 0.0 99922
03:00+5ююз239598 0.1 1000133
06:00+6сз3696100 0.2 1002522
09:00+5з2493100 0.3 1006347
12:00+7юз3584100 0.1 1007574
15:00+6ююз2386100 0.1 1008401
18:00+5ююв3492100 0.0 1007218
21:00+5юв6987100 0.0 1007387